Carbondale, IL

5:34 AM CDT on September 26, 2017 (GMT -0500)
Southern Illinois

Weather History for KMDH - November, 2012

Change the Weather History Date:

Thursday, November 1, 2012

  Actual Average Record
Temperature  
Mean Temperature 45 °F -  
Max Temperature 62 °F 66 °F 88 °F (1933)
Min Temperature 28 °F 43 °F 19 °F (1913)
Degree Days  
Heating Degree Days 20    
Moisture  
Dew Point 31 °F    
Average Humidity 54    
Maximum Humidity 89    
Minimum Humidity 29    
Precipitation  
Precipitation 0.00 in - - ()
Sea Level Pressure  
Sea Level Pressure 29.96 in    
Wind  
Wind Speed 4 mph (SW)    
Max Wind Speed 9 mph    
Max Gust Speed -    
Visibility 8 miles    
Events      
Averages and records for this station are not official NWS values.
T = Trace of Precipitation, MM = Missing Value Source: NWS Daily Summary

Daily Weather History Graph

Daily Weather History Graph

Search for Another Location

Airport or City:

Trip Planner

Search our weather history database for the weather conditions in past years. The results will help you decide how hot, cold, wet, or windy it might be!

Date:

Astronomy

Nov. 01, 2012 Rise Set
Actual Time 7:22 AM CDT 5:57 PM CDT
Civil Twilight 6:55 AM CDT 6:24 PM CDT
Nautical Twilight 6:24 AM CDT 6:55 PM CDT
Astronomical Twilight 5:53 AM CDT 7:26 PM CDT
Moon 7:57 PM CDT (11/1) 9:53 AM CDT (11/1)
Length of Visible Light 11h 29m
Length of Day
10h 34m
Waning Gibbous, 93% of the Moon is Illuminated
Nov 1
Waning Gibbous
Nov 6
Last Quarter
Nov 13
New
Nov 20
First Quarter
Nov 28
Full

Hourly Weather History & Observations

Time (CDT) Temp. Windchill Dew Point Humidity Pressure Visibility Wind Dir Wind Speed Gust Speed Precip Events Conditions
12:52 AM 32.0 °F - 26.1 °F 79% 29.99 in 10.0 mi Calm Calm - N/A   Clear
1:52 AM 30.9 °F - 27.0 °F 85% 29.99 in 10.0 mi Calm Calm - N/A   Clear
2:52 AM 30.9 °F 27.5 °F 27.0 °F 85% 29.99 in 10.0 mi West 3.5 mph - N/A   Clear
3:52 AM 30.0 °F 26.5 °F 25.0 °F 82% 29.99 in 10.0 mi WNW 3.5 mph - N/A   Clear
4:52 AM 28.9 °F - 26.1 °F 89% 30.00 in 10.0 mi Calm Calm - N/A   Clear
5:52 AM 28.0 °F - 25.0 °F 88% 30.00 in 10.0 mi Calm Calm - N/A   Clear
6:52 AM 33.1 °F 26.9 °F 25.0 °F 72% 30.01 in 10.0 mi West 6.9 mph - N/A   Clear
7:52 AM 34.0 °F 28.8 °F 26.1 °F 73% 30.03 in 10.0 mi WSW 5.8 mph - N/A   Clear
8:52 AM 39.0 °F 35.7 °F 28.0 °F 65% 30.04 in 10.0 mi WSW 4.6 mph - N/A   Scattered Clouds
9:52 AM 46.0 °F 44.8 °F 30.0 °F 54% 30.04 in 10.0 mi Variable 3.5 mph - N/A   Scattered Clouds
10:52 AM 54.0 °F - 26.1 °F 34% 30.04 in 10.0 mi NW 3.5 mph - N/A   Clear
11:52 AM 57.0 °F - 28.0 °F 33% 30.03 in 10.0 mi Variable 5.8 mph - N/A   Mostly Cloudy
12:52 PM 59.0 °F - 28.0 °F 31% 30.01 in 10.0 mi West 4.6 mph - N/A   Overcast
1:52 PM 61.0 °F - 30.0 °F 31% 29.98 in 4.0 mi WSW 5.8 mph - N/A   Haze
2:07 PM 60.8 °F - 28.4 °F 29% 29.97 in 2.0 mi South 6.9 mph - N/A   Haze
2:14 PM 60.8 °F - 30.2 °F 31% 29.96 in 10.0 mi SW 5.8 mph - N/A   Mostly Cloudy
2:52 PM 61.0 °F - 30.0 °F 31% 29.95 in 10.0 mi Variable 3.5 mph - N/A   Overcast
3:52 PM 62.1 °F - 33.1 °F 34% 29.94 in 10.0 mi WSW 4.6 mph - N/A   Overcast
4:52 PM 60.1 °F - 37.0 °F 42% 29.93 in 10.0 mi South 6.9 mph - N/A   Overcast
5:52 PM 57.0 °F - 36.0 °F 45% 29.92 in 10.0 mi South 5.8 mph - N/A   Overcast
6:26 PM 57.2 °F - 35.6 °F 44% 29.91 in 2.0 mi SSW 8.1 mph - N/A   Haze
6:52 PM 57.0 °F - 36.0 °F 45% 29.92 in 2.5 mi SSW 8.1 mph - N/A   Haze
7:39 PM 55.4 °F - 35.6 °F 47% 29.90 in 3.0 mi SSW 9.2 mph - N/A   Haze
7:47 PM 55.4 °F - 35.6 °F 47% 29.90 in 2.5 mi SSW 8.1 mph - N/A   Haze
7:52 PM 55.9 °F - 36.0 °F 47% 29.91 in 3.0 mi SSW 6.9 mph - N/A   Haze
8:03 PM 55.4 °F - 35.6 °F 47% 29.90 in 2.5 mi SSW 5.8 mph - N/A   Haze
8:32 PM 51.8 °F - 35.6 °F 54% 29.91 in 3.0 mi SSW 5.8 mph - N/A   Haze
8:52 PM 51.1 °F - 36.0 °F 56% 29.92 in 8.0 mi Calm Calm - N/A   Partly Cloudy
9:52 PM 50.0 °F - 36.0 °F 59% 29.91 in 10.0 mi South 5.8 mph - N/A   Clear
10:52 PM 48.9 °F - 37.0 °F 64% 29.90 in 10.0 mi SSW 3.5 mph - N/A   Clear
11:52 PM 48.9 °F - 37.9 °F 66% 29.88 in 10.0 mi SSW 4.6 mph - N/A   Clear